www.pogodaiklimat.ru

Погода и климат >> Архив погоды >> Канада >> Baker Lake Airport


ПОГОДА в Baker Lake Airport

  • Прогноз погоды в Baker Lake Airport
  • Монитор погоды в Baker Lake Airport
  • Климат города

АРХИВ ПОГОДЫ в Baker Lake Airport

Время (UTC), дата Ветер
(напр.,м/с)
 
Видим.   Явления Облачность Т
(С)
Тd
(С)
f
(%)
Тe
(С)
Тes
(С)
Комфортность P
(гПа)
Po
(гПа)
Тmin
(С)
Tmax
(С)
R
(мм)
R24
(мм)
S
(см)
18 10.11 ЮВ 7 6000 м 8/8 600 м
[Sc]
-15.6 -17.9 82 -26 -26 999.8 997.4 -15.5 0.8
21 10.11 ЮВ 3 24 км 9/9 300 м
[]
-14.4 -16.7 83 -21 -21 998.7 996.3
00 11.11 СЗ 2 24 км слабый снег 10/10 1500 м
[Sc]
-16.0 -18.3 82 -20 -20 998.8 996.4 -20.5 -14.3 0.4
03 11.11 СЗ 4 24 км 5/5 1500 м
[]
-17.8 -20.3 81 -26 -26 999.8 997.4
06 11.11 СЗ 3 24 км {снег} 4/1 300 м
[Sc Ac trans]
-19.6 -22.3 79 -26 -26 1001.2 998.8 -20.5 -14.3 0.0 131
09 11.11 СЗ 6 24 км 1/1 300 м
[]
-21.7 -24.6 77 -33 -33 опасность
обморожения
1003.6 1001.1
12 11.11 З 7 24 км позёмок ясно -22.2 -25.2 77 -34 -34 опасность
обморожения
1005.3 1002.8 -23.3 -14.3 5
15 11.11 З 6 30 км 10/10 300 м
[]
-19.3 -22.4 76 -30 -30 1006.2 1003.7
18 11.11 С 8 30 км позёмок {снег} 3/3 100 м
[Sc]
-19.5 -22.8 75 -32 -32 опасность
обморожения
1008.0 1005.5 -23.3 -18.9 0.0
21 11.11 СЗ 8 30 км ясно -17.3 -20.2 78 -29 -29 1009.8 1007.3
00 12.11 С 9 24 км 5/1 300 м
[Sc Ac und]
-14.5 -17.4 79 -26 -26 1011.3 1008.8 -23.3 -14.5
03 12.11 СЗ 7 24 км 6/6 300 м
[]
-13.4 -16.6 77 -23 -23 1012.9 1010.4
06 12.11 С 7 24 км слабый снег 10/10 300 м
[Sc]
-12.5 -15.5 78 -22 -22 1014.0 1011.5 -23.3 -12.5 0.0 141
09 12.11 СЗ 6 24 км 10/10 1000 м
[]
-12.7 -15.6 79 -22 -22 1015.2 1012.7
12 12.11 СЗ 7 24 км слабый снег 10/6 1000 м
[Sc Ac As]
-14.2 -16.9 80 -24 -24 1015.9 1013.4 -14.7 -12.5 0.0 5
15 12.11 С 7 24 км 10/10 1500 м
[]
-14.3 -17.5 77 -24 -24 1016.7 1014.2
18 12.11 СЗ 5 30 км ледяные иглы {снег} 6/1 1000 м
[Sc Ac trans Ci fib]
-17.4 -20.6 76 -27 -27 1017.9 1015.4 -19.6 -12.4 0.0
21 12.11 С 5 24 км 10/10 600 м
[]
-16.9 -20.0 77 -26 -26 1019.2 1016.7
00 13.11 СЗ 5 24 км ледяные иглы {снег} 9/8 600 м
[Sc Ac trans]
-17.3 -20.0 79 -27 -27 1020.4 1017.9 -18.1 -13.9 0.0
03 13.11 СЗ 5 16 км 10/10 600 м
[]
-15.1 -18.0 78 -24 -24 1020.7 1018.2
06 13.11 З 5 16 км слабый снег 10/10 1000 м
[Sc]
-15.3 -18.0 80 -24 -24 1021.1 1018.6 -18.1 -12.4 0.0 140
09 13.11 З 3 24 км 10/10 1500 м
[]
-15.5 -18.1 80 -22 -22 1021.5 1019.0
12 13.11 З 3 16 км слабый снег 10/10 1500 м
[Sc]
-15.5 -18.1 80 -22 -22 1020.8 1018.3 -17.2 -12.4 0.0 <0.5
15 13.11 С 2 16 км 10/10 1500 м
[]
-15.7 -18.4 80 -21 -21 1020.4 1017.9
18 13.11 СЗ 3 24 км слабый снег 10/10 1500 м
[Sc]
-15.8 -18.7 78 -22 -22 1019.7 1017.2 0.2
21 13.11 С 3 24 км 10/10 1500 м
[]
-16.2 -19.1 78 -22 -22 1019.1 1016.6
00 14.11 С 5 24 км слабый снег 10/10 1500 м
[Sc]
-17.2 -20.2 77 -27 -27 1019.1 1016.6 0.0
03 14.11 С 4 24 км 10/10 1500 м
[]
-17.3 -20.6 75 -25 -25 1019.2 1016.7
06 14.11 С 3 24 км слабый снег 10/10 1500 м
[Sc]
-17.6 -20.8 76 -25 -25 1019.8 1017.3 0.0 7
09 14.11 СЗ 4 24 км 10/10 1500 м
[]
-18.4 -21.4 77 -27 -27 1020.4 1017.9
12 14.11 СЗ 5 24 км 10/10 1000 м
[Sc]
-18.7 -21.8 76 -29 -29 1021.3 1018.8 -18.9 0.0 <0.5
15 14.11 С 8 30 км 10/10 600 м
[]
-18.6 -22.0 75 -31 -31 опасность
обморожения
1022.4 1019.9
18 14.11 СЗ 7 24 км в посл. час снег 3/3 200 м
[Sc]
-21.6 -25.4 71 -34 -33 опасность
обморожения
1024.4 1021.9 -21.6 -17.5 0.0 5
21 14.11 СЗ 10 30 км ясно -25.1 -28.6 72 -40 -40 опасность
обморожения
1025.4 1022.9
00 15.11 СЗ 9 24 км позёмок 3/0 2000 м
[Ac As]
-24.9 -28.5 72 -40 -40 опасность
обморожения
1026.2 1023.7 -25.4 -17.8
03 15.11 З 7 24 км 10/10 1500 м
[]
-22.9 -26.5 72 -36 -36 опасность
обморожения
1026.5 1024.0
06 15.11 З 7 24 км слабый снег 10/10 1000 м
[Sc]
-20.0 -23.5 74 -31 -31 опасность
обморожения
1026.2 1023.7 -25.4 -17.5 0.0 11
09 15.11 СЗ 7 24 км 6/6 1000 м
[]
-21.1 -24.6 73 -33 -33 опасность
обморожения
1026.5 1024.0
12 15.11 З 4 24 км слабый снег 10/10 600 м
[Sc]
-19.1 -22.5 74 -28 -28 1025.9 1023.4 -25.0 -17.5 0.0 <0.5
15 15.11 СЗ 4 30 км 4/4 600 м
[]
-24.2 -27.6 73 -34 -34 опасность
обморожения
1026.3 1023.8
18 15.11 З 3 30 км {снег} 4/1 600 м
[Sc As trans Ci fib]
-25.1 -28.6 72 -34 -34 опасность
обморожения
1025.7 1023.2 -25.5 -18.3 0.0 5
21 15.11 З 2 30 км 3/0 2000 м
[]
-23.8 -27.3 73 -30 -30 1025.5 1023.0
00 16.11 ЮЗ 1 24 км 5/5 600 м
[Sc]
-25.4 -28.6 74 -29 -29 1025.5 1023.0 -26.0 -18.3
03 16.11 З 4 24 км 3/3 600 м
[]
-23.9 -27.1 75 -34 -34 опасность
обморожения
1025.3 1022.8
06 16.11 З 5 24 км слабый снег 10/10 300 м
[Sc]
-20.9 -24.0 76 -31 -31 опасность
обморожения
1024.8 1022.3 -26.0 -18.3 0.0 151
09 16.11 З 4 24 км 10/10 300 м
[]
-20.5 -23.5 77 -29 -29 1024.3 1021.8
12 16.11 З 4 24 км слабый снег 10/10 300 м
[Sc]
-19.4 -22.3 78 -28 -28 1023.8 1021.3 -26.0 -18.3 0.0 5
15 16.11 ЮЗ 5 30 км 9/9 300 м
[]
-24.0 -26.7 78 -35 -35 опасность
обморожения
1023.0 1020.5
18 16.11 ЮЗ 3 30 км {снег} 6/1 200 м
[Sc Ac trans]
-24.6 -27.7 75 -33 -33 опасность
обморожения
1021.8 1019.3 -26.0 -19.1 0.0 5
21 16.11 ЮВ 2 24 км 10/10 100 м
[]
-22.5 -24.5 84 -29 -29 1020.7 1018.2
00 17.11 ЮВ 8 16 км ледяные иглы {снег} 9/9 200 м
[Sc]
-19.2 -21.6 81 -31 -31 опасность
обморожения
1019.1 1016.6 -25.5 -19.2 0.0 5
03 17.11 ЮВ 7 24 км 10/0 2000 м
[]
-18.7 -21.4 79 -30 -30 1017.4 1014.9
06 17.11 8000 м метель {снег} н/о -17.5 -20.1 80 -29 -29 1015.5 1013.0 -25.5 -17.5 0.0 2
09 17.11 В 9 800 м ясно -16.9 -19.2 82 -29 -29 1013.1 1010.6
12 17.11 В 12 800 м метель 10/10 300 м
[Sc]
-14.3 -16.2 85 -27 -27 1009.5 1007.0 -19.2 -17.5 21 7
15 17.11 В 12 400 м 8/8 200 м
[]
-12.0 -13.7 87 -24 -24 1006.4 1004.0

 

Местоположение метеостанции Baker Lake Airport (Канада): широта 64.30 долгота -96.06 высота над уровнем моря 18 м.

В архиве по умолчанию представлена погода в Baker Lake Airport за последнюю неделю. Архивные данные за месяц целиком и за предыдущие месяцы, начиная с января 2011 года, Вы можете получить, выбрав интересующий диапазон дат из раскрывающегося списка и нажав кнопку "Ввод!".

Внимание! Время в таблицах - всемирное. Для получения местного времени необходимо прибавить поправку, которая в Baker Lake Airport равна -6 ч.

Смотрите также архив погоды в соседних городах и на ближайших метеорологических станциях:

Погода в Baker Lake Climate (Канада) (4 км)
Погода в Back River MAPS (Канада) (199 км)
Погода в Rankin Inlet (Канада) (256 км)
Погода в Dubawnt Lake (Канада) (302 км)
Погода в Robertson Lake (Канада) (314 км)
Погода в Wager Bay (Канада) (357 км)
Погода в Arviat Climate (Канада) (370 км)
Погода в Arviat (Канада) (370 км)
Погода в Arviat Airport (Канада) (371 км)
Погода в Hanbury River ARS (Канада) (451 км)

Пояснения к столбцам:

Ветер - указаны скорость ветра в м/с - средняя за 10 мин, порывы в срок и между сроками (в фигурных скобках) и направление, откуда дует ветер: С - северный, СВ - северо-восточный, В - восточный, ЮВ - юго-восточный, Ю - южный, ЮЗ - юго-западный, З - западный, СЗ - северо-западный.
Видимость - горизонтальная дальность видимости в метрах или километрах. При видимости от 1 до 10 км при отсутствии осадков обычно наблюдается дымка, при ухудшении видимости до 1 км и менее - туман. В сухую погоду видимость может ухудшаться дымом, пылью или мглою.
Явления - указаны атмосферные явления, наблюдавшиеся в срок или в последний час перед сроком; фигурными скобками обозначены явления, наблюдавшиеся между сроками (за 1-3 часа до срока); квадратными скобками обозначены град или гололедные отложения с указанием их диаметра в мм.
Облачность - указаны через наклонную черту общая и нижняя облачность в баллах и высота нижней границы облаков в метрах; квадратными скобками обозначены формы облаков: Ci - перистые, Cs - перисто-слоистые, Cc - перисто-кучевые, Ac - высококучевые, As - высокослоистые, Sc - слоисто-кучевые, Ns - слоисто-дождевые, Cu - кучевые, Cb - кучево-дождевые. Подробнее классификацию облаков см. в Атласе облаков (PDF).
T - Температура воздуха - температура, измеренная на высоте 2 м над землей.
Td - Температура точки росы - температура, при понижении до которой содержащийся в воздухе водяной пар достигнет насыщения.
f - Относительная влажность воздуха - влажноcть воздуха, измеренная на высоте 2 м над землей.
Te - Эффективная температура - температура, которую ощущает одетый по сезону человек в тени. Характеристика душности погоды. При расчете учитывается влияние влажности воздуха и скорости ветра на теплоощущения человека.
Tes - Эффективная температура на солнце - температура, которую ощущает человек, с поправкой на солнечный нагрев. Характеристика знойности погоды. Зависит от высоты солнца над горизонтом, облачности и скорости ветра. Ночью, в пасмурную погоду, а также при ветре 12 м/с и более поправка равна нулю.
P - Атмосферное давление - приведенное к уровню моря атмосферное давление.
Po - Атмосферное давление - измеренное на уровне метеостанции атмосферное давление.
Tmin - Минимальная температура - минимум температуры воздуха на высоте 2 м над землей.
Tmax - Максимальная температура - максимум температуры воздуха на высоте 2 м над землей.
R - Количество осадков - Количество выпавших осадков за период времени, мм. При наведении курсора мыши на число - период времени, за который выпало указанное количество осадков.
R24 - Количество осадков - Количество выпавших осадков за 24 часа, мм.
S - Снежный покров - Высота снежного покрова, см. При наведении курсора мыши на число - состояние снежного покрова и степень покрытия местности в баллах.